Morris, MN

3:11 AM CST on February 14, 2016 (GMT -0600)
Morris Municipal

Weather History for KMOX - June, 2013

Change the Weather History Date:

Wednesday, June 5, 2013

  Actual Average Record
Temperature  
Mean Temperature 60 °F -  
Max Temperature 66 °F 71 °F 84 °F (2012)
Min Temperature 53 °F 51 °F 33 °F (2005)
Degree Days  
Heating Degree Days 6    
Growing Degree Days 10 (Base 50)    
Moisture  
Dew Point 52 °F    
Average Humidity 78    
Maximum Humidity 100    
Minimum Humidity 52    
Precipitation  
Precipitation 0.00 in - - ()
Sea Level Pressure  
Sea Level Pressure 29.97 in    
Wind  
Wind Speed 6 mph (NNW)    
Max Wind Speed 16 mph    
Max Gust Speed -    
Visibility 10 miles    
Events      
Averages and records for this station are not official NWS values.
T = Trace of Precipitation, MM = Missing Value Source: NWS Daily Summary

Daily Weather History Graph

Daily Weather History Graph

Search for Another Location

Airport or City:

Trip Planner

Search our weather history database for the weather conditions in past years. The results will help you decide how hot, cold, wet, or windy it might be!

Date:

Astronomy

Jun. 05, 2013 Rise Set
Actual Time 5:36 AM CDT 9:09 PM CDT
Civil Twilight 4:58 AM CDT 9:46 PM CDT
Nautical Twilight 4:09 AM CDT 10:36 PM CDT
Astronomical Twilight 3:04 AM CDT 11:41 PM CDT
Moon 3:48 AM CDT (6/5) 6:30 PM CDT (6/5)
Length of Visible Light 16h 47m
Length of Day
15h 32m
Waning Crescent, 8% of the Moon is Illuminated
Jun 5
Waning Crescent
Jun 8
New
Jun 16
First Quarter
Jun 23
Full
Jun 29
Last Quarter

Hourly Weather History & Observations

Time (CDT) Temp. Dew Point Humidity Pressure Visibility Wind Dir Wind Speed Gust Speed Precip Events Conditions
12:11 AM 59.0 °F 57.2 °F 94% 29.95 in 7.0 mi SSE 9.2 mph - N/A   Overcast
12:31 AM 59.0 °F 57.2 °F 94% 29.96 in 7.0 mi South 9.2 mph - N/A   Mostly Cloudy
12:51 AM 57.2 °F 57.2 °F 100% 29.96 in 7.0 mi South 5.8 mph - N/A   Mostly Cloudy
1:11 AM 57.2 °F 57.2 °F 100% 29.95 in 7.0 mi SE 8.1 mph - N/A   Mostly Cloudy
1:31 AM 57.2 °F 55.4 °F 94% 29.96 in 10.0 mi West 4.6 mph - N/A   Scattered Clouds
1:51 AM 57.2 °F 53.6 °F 88% 29.96 in 10.0 mi West 3.5 mph - N/A   Clear
2:11 AM 57.2 °F 53.6 °F 88% 29.96 in 10.0 mi WNW 5.8 mph - N/A   Mostly Cloudy
2:31 AM 57.2 °F 51.8 °F 82% 29.96 in 10.0 mi West 4.6 mph - N/A   Overcast
2:51 AM 57.2 °F 51.8 °F 82% 29.96 in 10.0 mi West 3.5 mph - N/A   Overcast
3:11 AM 55.4 °F 51.8 °F 88% 29.95 in 10.0 mi West 3.5 mph - N/A   Overcast
3:31 AM 55.4 °F 51.8 °F 88% 29.95 in 10.0 mi WSW 6.9 mph - N/A   Overcast
3:51 AM 55.4 °F 51.8 °F 88% 29.96 in 10.0 mi WSW 4.6 mph - N/A   Overcast
4:11 AM 55.4 °F 51.8 °F 88% 29.95 in 10.0 mi SW 5.8 mph - N/A   Mostly Cloudy
4:31 AM 55.4 °F 50.0 °F 82% 29.95 in 10.0 mi SW 3.5 mph - N/A   Overcast
4:51 AM 53.6 °F 50.0 °F 88% 29.94 in 10.0 mi West 4.6 mph - N/A   Overcast
5:11 AM 53.6 °F 51.8 °F 94% 29.95 in 10.0 mi WSW 4.6 mph - N/A   Overcast
5:31 AM 53.6 °F 51.8 °F 94% 29.95 in 10.0 mi West 5.8 mph - N/A   Overcast
5:51 AM 55.4 °F 51.8 °F 88% 29.95 in 10.0 mi WSW 6.9 mph - N/A   Overcast
6:11 AM 55.4 °F 51.8 °F 88% 29.95 in 10.0 mi WSW 5.8 mph - N/A   Overcast
6:31 AM 53.6 °F 50.0 °F 88% 29.95 in 10.0 mi West 3.5 mph - N/A   Mostly Cloudy
6:51 AM 55.4 °F 51.8 °F 88% 29.96 in 10.0 mi Calm Calm - N/A   Overcast
7:11 AM 55.4 °F 51.8 °F 88% 29.96 in 10.0 mi Calm Calm - N/A   Overcast
7:31 AM 55.4 °F 51.8 °F 88% 29.97 in 10.0 mi Calm Calm - N/A   Overcast
7:51 AM 55.4 °F 51.8 °F 88% 29.97 in 10.0 mi Calm Calm - N/A   Overcast
8:11 AM 55.4 °F 51.8 °F 88% 29.97 in 10.0 mi Calm Calm - N/A   Overcast
8:31 AM 55.4 °F 51.8 °F 88% 29.97 in 10.0 mi Calm Calm - N/A   Overcast
8:51 AM 57.2 °F 51.8 °F 82% 29.96 in 10.0 mi West 6.9 mph - N/A   Overcast
9:06 AM 57.2 °F 51.8 °F 82% 29.97 in 10.0 mi WSW 6.9 mph - N/A   Overcast
9:32 AM 57.2 °F 51.8 °F 82% 29.96 in 10.0 mi West 3.5 mph - N/A   Overcast
9:51 AM 57.2 °F 51.8 °F 82% 29.96 in 10.0 mi SW 4.6 mph - N/A   Overcast
10:11 AM 59.0 °F 51.8 °F 77% 29.96 in 10.0 mi Calm Calm - N/A   Overcast
10:31 AM 60.8 °F 51.8 °F 72% 29.96 in 10.0 mi NNW 4.6 mph - N/A   Overcast
10:51 AM 60.8 °F 51.8 °F 72% 29.97 in 10.0 mi NW 5.8 mph - N/A   Overcast
11:11 AM 60.8 °F 51.8 °F 72% 29.97 in 10.0 mi Calm Calm - N/A   Overcast
11:31 AM 60.8 °F 51.8 °F 72% 29.97 in 10.0 mi Calm Calm - N/A   Overcast
11:51 AM 60.8 °F 51.8 °F 72% 29.97 in 10.0 mi Calm Calm - N/A   Mostly Cloudy
12:11 PM 62.6 °F 51.8 °F 68% 29.97 in 10.0 mi Calm Calm - N/A   Mostly Cloudy
12:31 PM 62.6 °F 51.8 °F 68% 29.98 in 10.0 mi SSW 3.5 mph - N/A   Overcast
12:51 PM 62.6 °F 53.6 °F 72% 29.98 in 10.0 mi Calm Calm - N/A   Mostly Cloudy
1:11 PM 64.4 °F 50.0 °F 59% 29.98 in 10.0 mi Calm Calm - N/A   Mostly Cloudy
1:31 PM 62.6 °F 51.8 °F 68% 29.98 in 10.0 mi WSW 5.8 mph - N/A   Overcast
1:51 PM 62.6 °F 51.8 °F 68% 29.97 in 10.0 mi NW 4.6 mph - N/A   Overcast
2:11 PM 64.4 °F 51.8 °F 64% 29.97 in 10.0 mi NNW 6.9 mph - N/A   Mostly Cloudy
2:31 PM 64.4 °F 50.0 °F 59% 29.97 in 10.0 mi NNW 3.5 mph - N/A   Mostly Cloudy
2:51 PM 66.2 °F 51.8 °F 60% 29.96 in 10.0 mi NNW 6.9 mph - N/A   Mostly Cloudy
3:11 PM 66.2 °F 48.2 °F 52% 29.96 in 10.0 mi NNE 3.5 mph - N/A   Overcast
3:31 PM 66.2 °F 50.0 °F 56% 29.95 in 10.0 mi North 6.9 mph - N/A   Overcast
3:51 PM 66.2 °F 51.8 °F 60% 29.95 in 10.0 mi NNW 3.5 mph - N/A   Scattered Clouds
4:11 PM 66.2 °F 51.8 °F 60% 29.95 in 10.0 mi North 10.4 mph - N/A   Mostly Cloudy
4:31 PM 64.4 °F 51.8 °F 64% 29.96 in 10.0 mi NNE 6.9 mph - N/A   Overcast
4:51 PM 66.2 °F 51.8 °F 60% 29.96 in 10.0 mi NE 11.5 mph - N/A   Overcast
5:11 PM 64.4 °F 53.6 °F 68% 29.96 in 10.0 mi NE 9.2 mph - N/A   Overcast
5:31 PM 64.4 °F 53.6 °F 68% 29.96 in 10.0 mi ENE 6.9 mph - N/A   Overcast
5:51 PM 64.4 °F 53.6 °F 68% 29.96 in 10.0 mi NNE 6.9 mph - N/A   Overcast
6:11 PM 64.4 °F 51.8 °F 64% 29.95 in 10.0 mi NE 5.8 mph - N/A   Overcast
6:31 PM 64.4 °F 51.8 °F 64% 29.95 in 10.0 mi East 5.8 mph - N/A   Overcast
6:51 PM 62.6 °F 51.8 °F 68% 29.96 in 10.0 mi ENE 10.4 mph - N/A   Overcast
7:11 PM 62.6 °F 53.6 °F 72% 29.96 in 10.0 mi East 16.1 mph - N/A   Overcast
7:31 PM 60.8 °F 53.6 °F 77% 29.97 in 10.0 mi East 10.4 mph - N/A   Overcast
7:51 PM 60.8 °F 53.6 °F 77% 29.98 in 10.0 mi ENE 11.5 mph - N/A   Light Drizzle
8:11 PM 60.8 °F 53.6 °F 77% 29.99 in 10.0 mi ENE 11.5 mph - N/A   Overcast
8:31 PM 59.0 °F 53.6 °F 82% 29.99 in 10.0 mi ENE 12.7 mph - N/A   Overcast
8:51 PM 59.0 °F 53.6 °F 82% 30.00 in 10.0 mi ENE 11.5 mph - N/A   Overcast
9:11 PM 57.2 °F 51.8 °F 82% 30.00 in 10.0 mi NE 10.4 mph - N/A   Overcast
9:31 PM 57.2 °F 51.8 °F 82% 30.01 in 10.0 mi NE 9.2 mph - N/A   Overcast
9:51 PM 57.2 °F 51.8 °F 82% 30.01 in 10.0 mi NE 8.1 mph - N/A   Overcast
10:11 PM 55.4 °F 51.8 °F 88% 30.01 in 10.0 mi ENE 8.1 mph - N/A   Overcast
10:31 PM 57.2 °F 51.8 °F 82% 30.02 in 10.0 mi ENE 9.2 mph - N/A   Overcast
10:51 PM 55.4 °F 50.0 °F 82% 30.02 in 10.0 mi ENE 10.4 mph - N/A   Overcast
11:11 PM 55.4 °F 50.0 °F 82% 30.02 in 10.0 mi ENE 9.2 mph - N/A   Overcast
11:31 PM 55.4 °F 51.8 °F 88% 30.02 in 10.0 mi ENE 5.8 mph - N/A   Overcast
11:51 PM 55.4 °F 51.8 °F 88% 30.02 in 10.0 mi NE 6.9 mph - N/A   Overcast